SBCYSBCG

Guest
Details From SBCY - Marechal Rondon
To SBCG - Campo Grande
Flight Number -
Tags decoded
Created
Modified
Stats Distance 301 nm / 557 km
Max Altitude 0 ft / 0 m
Waypoints 4
Social Downloads 2
Likes 0
Share VATSIM

Download

Looking for another format? Having issues loading an existing format? Contact us
Advertisement - Login to hide

Notes

Requested: SBCY NEKE1C NEKET UW28 TOSAR SBCG Unmatched points: NEKE1C UW28

Route

SBCY NEKET TOSAR SBCG

ID Type Via Altitude Latitude Longitude Leg Dist Tot Dist Heading (true) Name
O SBCY APT - 0 ft / 0 m -15.65293˚ -56.11672˚ - 0 nm - Marechal Rondon
NEKET FIX - 0 ft / 0 m -16.30017˚ -55.92367˚ 40 nm 40 nm 164° / 164° -
TOSAR FIX - 0 ft / 0 m -17.65067˚ -55.52450˚ 84 nm 124 nm 164° / 164° -
O SBCG APT - 0 ft / 0 m -20.46867˚ -54.67250˚ 176 nm 300 nm 164° / 164° Campo Grande

Altitude Profile

Advertisement - Login to hide

Weather


0- 5 10 15 20 25 30 35+ Temperature / ° C

Clouds and Precipitation
Forecast for 2018-05-23 06:00 UTC. Updated an hour ago

Ground ~20,000 ft ~40,000 ft Winds

SBCY

Details ICAO SBCY (CGB)
Name Marechal Rondon
Region Brazil
Timezone America/Cuiaba (UTC-4.0)
Stats Elevation 609 ft / 186 m (AMSL)
Location -15.652930° -56.116720°
Runways 1
Magnetic Variation 17.466° W

METAR

SBCY 230600Z 20005KT CAVOK 18/15 Q1018

Decode

TAF

TAF SBCY 222200Z 2300/2324 16005KT CAVOK TN15/2308Z TX28/2317Z BECMG 2304/2306 33005KT BECMG 2315/2317 36005KT SCT020 BECMG 2321/2323 03005KT RMK PCQ

Decode

Departure Runways

ID Width Length Bearing (true) Bearing (mag) Surface Threshold Offset Overrun Length
17 148 ft / 45 m 7,558 ft / 2,304 m 152.83° 170.30° Asphalt 0 ft / 0 m 190 ft / 58 m
35 148 ft / 45 m 7,558 ft / 2,304 m 332.82° 350.29° Asphalt 0 ft / 0 m 190 ft / 58 m

SBCG

Details ICAO SBCG (CGR)
Name Campo Grande
Region Brazil
Timezone America/Campo_Grande (UTC-4.0)
Stats Elevation 1,833 ft / 559 m (AMSL)
Location -20.468666° -54.672500°
Runways 1
Magnetic Variation 17.602° W

METAR

SBCG 230600Z 12006KT CAVOK 13/10 Q1019

Decode

TAF

TAF SBCG 222230Z 2300/2324 12007KT CAVOK TN11/2308Z TX26/2318Z RMK PEB

Decode

Destination Runways

ID Width Length Bearing (true) Bearing (mag) Surface Threshold Offset Overrun Length
06 141 ft / 43 m 8,563 ft / 2,610 m 40.84° 58.44° Asphalt 0 ft / 0 m 192 ft / 59 m
24 141 ft / 43 m 8,563 ft / 2,610 m 220.83° 238.43° Asphalt 0 ft / 0 m 190 ft / 58 m

Approach Navaids

Runway Type Ident Frequency Range Bearing (true) Bearing (mag) Slope Elevation
06 Localiser ICG 110.30 MHz 18 nm / 33 km 41.62° 59.22° - 1,833 ft / 559 m (AMSL)
06 Glidescope ICG 110.30 MHz 10 nm / 19 km 40.84° 58.44° 3.00° 1,833 ft / 559 m (AMSL)

Popular Alternatives